User: anonymous   Login
Location: Carabito
(9.8355°N, 67.9249°W)
Time: 10:21:25
(UTC+00:00)
Language:

CZ-4 DEB - Orbit

View from above orbital plane
View from above orbital plane
View from above satellite
View from above satellite

Ground track
Ground track

The orbit data is extracted from the following two-line orbital elements,

1 29043U 04035K   24279.86286284  .00011476  00000-0  82218-3 0  9991
2 29043  97.6247 298.9848 0003575  89.2596 270.9040 15.04539574 27859
Epoch (UTC): 05 October 2024 20:42:31
Eccentricity: 0.0003575
inclination: 97.6247°
perigee height: 550 km
apogee height: 555 km
right ascension of ascending node: 298.9848°
argument of perigee: 89.2596°
revolutions per day: 15.04539574
mean anomaly at epoch: 270.9040°
orbit number at epoch: 2785

The dashed part of the orbit path shows where the satellite is in the earth's shadow,  

DLR